User: anonymous   Login
Location: Standeford and Andreas Observatories
(44.1397°N, 93.9969°W)
Time: 13:24:36
(UTC-05:00)
Language:

Cosmos 1500 Rocket - Orbit

View from above orbital plane
View from above orbital plane
View from above satellite
View from above satellite

Ground track
Ground track

The orbit data is extracted from the following two-line orbital elements,

1 14373U 83099B   18140.91389363 +.00000090 +00000-0 +79567-5 0  9991
2 14373 082.5393 288.9140 0019976 187.8653 285.6073 14.83723878849858
Epoch (UTC): 20 May 2018 21:56:00
Eccentricity: 0.0019976
inclination: 82.5393°
perigee height: 603 km
apogee height: 631 km
right ascension of ascending node: 288.9140°
argument of perigee: 187.8653°
revolutions per day: 14.83723878
mean anomaly at epoch: 285.6073°
orbit number at epoch: 84985

The dashed part of the orbit path shows where the satellite is in the earth's shadow,  

DLR